STARLINK-1357, 45565

Orbit data source: Space-Track

STARLINK-1357, 45565 is a payload satellite owned by SpaceX/Seattle (US) in LEO that was launched on Wed, 22 Apr 2020 UTC via an FALCON 9 launch vehicle from the Air Force Eastern Test Range (AFETR). Payload-class satellites include a variety of spacecraft equipped with specific instruments for various scientific and technological missions. These include communications satellites like Starlink; space stations such as the ISS; scientific satellites like the Hubble; Earth observation satellites from companies like Planet Labs, Umbra, and HawkEye 360; GPS; miniature CubeSats for education and research; and military/defense satellites.

Loading next visibility...
Identifier
45565, 2020-025AL
Orbit
LEO
Last TLE update
1 hour ago
Origin
Manufacturer
SpaceX/Seattle
Mission
Operational Commercial Communications
Bus & Motor
STARLINK, Unknown motor
Mass
260 kg wet, ~248 kg dry
Launch date (UTC)
2020-04-22 (5 years ago)
Launch vehicle
FALCON 9
Launch site
Air Force Eastern Test Range (AFETR)
Object type
Payload
Rocket body
Debris
Shape & HBR
Box + 1 Pan, 8.86 m
Radar Cross Section
13.562 m², Large (>1 m²)

Expand to show TLE details & history

TLE from 1 hour ago
0 STARLINK-1357
1 45565U 20025AL  25187.91667824 -.00019729  00000-0 -92208-3 0  9994
2 45565  53.0556 109.2994 0001631  98.7226 226.1746 15.18871936287734
Epoch: 2025-07-06T22:00Z
TLE epoch observation values (Epoch: 2025-07-06T22:00:00.999Z)
Latitude
-27.57147°
Longitude
-168.82497°
Altitude
518.232 km
Speed
7.604 km/s
True Right ascension
05h 45m 15s
True Declination
-27° 25' 33"
Sunlit
Object was in daylight at epoch
Visualization orbit readout
Latitude
-22.08813°
Longitude
51.62697°
Altitude
515.858 km
Speed
7.606 km/s
Apparent Right ascension
21h 34m 49s
Apparent Declination
-31° 59' 16"
Sunlit
Object is in full shadow
Visualization observer readout
Local Sidereal Time
11:04:11
Azimuth
73.243° E
Elevation
-70.323°
Doppler factor
1
Orbital elements
Apogee altitude
510.644 km
Perigee altitude
508.397 km
Semi-major axis
6,887.658 km
Eccentricity
0.00016
Inclination
53.0556°
RAAN
109.2994°
Arg. of periapsis
98.7226°
True anomaly
Unknown
Mean anomaly
226.1746°
Eccentric anomaly
Unknown
Mean motion
3.79696 °/min
Orbital period
94.81 mins
BSTAR
-0.00092208
Loading maneuver chart data...
Loading SW <> Apogee altitude chart data...
Loading historical data...
Loading historical data...
Loading historical data...
Loading historical data...
Loading historical data...
Loading historical data...
Loading historical data...

STARLINK-1357 Visibility forecast

Observer location: undefined°, undefined°

Span
Click to sort rows by Start time (UTC) header in descending order
Start Az.
Max El. time (UTC)
Max El. Az.
Max El.
End time (UTC)
End Az.
4 mins2025-07-07 00:01:57.052Z311.019° NW2025-07-07 00:03:57.052Z343.571° N14.609°2025-07-07 00:05:57.052Z16.788° NNE
5 mins2025-07-07 03:21:57.052Z344.924° N2025-07-07 03:23:57.052Z31.726° NE24.104°2025-07-07 03:26:57.052Z85.227° E
6 mins2025-07-07 04:59:57.052Z295.266° NW2025-07-07 05:02:57.052Z206.109° SW36.838°2025-07-07 05:05:57.052Z150.888° SSE
4 mins2025-07-07 20:25:57.052Z165.181° S2025-07-07 20:27:57.052Z120.98° SE21.196°2025-07-07 20:29:57.052Z84.044° E
5 mins2025-07-07 22:03:57.052Z262.655° W2025-07-07 22:05:57.052Z319.674° NNW35.518°2025-07-07 22:08:57.052Z35.747° NE
|